STARLINK-1707, 46359

Orbit data source: Space-Track

STARLINK-1707, 46359 is a payload satellite owned by SpaceX/Seattle (US) in LEO that was launched on Thu, 03 Sep 2020 UTC via an FALCON 9 launch vehicle from the Air Force Eastern Test Range (AFETR). Payload-class satellites include a variety of spacecraft equipped with specific instruments for various scientific and technological missions. These include communications satellites like Starlink; space stations such as the ISS; scientific satellites like the Hubble; Earth observation satellites from companies like Planet Labs, Umbra, and HawkEye 360; GPS; miniature CubeSats for education and research; and military/defense satellites.

Loading next visibility...
Identifier
46359, 2020-062AL
Orbit
LEO
Last TLE update
16 hours ago
Origin
Manufacturer
SpaceX/Seattle
Mission
Partially operational Commercial Communications
Bus & Motor
STARLINK, Unknown motor
Mass
260 kg wet, ~248 kg dry
Launch date (UTC)
2020-09-03 (5 years ago)
Launch vehicle
FALCON 9
Launch site
Air Force Eastern Test Range (AFETR)
Object type
Payload
Rocket body
Debris
Shape & HBR
Box + 1 Pan, 8.86 m
Radar Cross Section
13.562 m², Large (>1 m²)

Expand to show TLE details & history

TLE from 16 hours ago
0 STARLINK-1707
1 46359U 20062AL  25128.59439005  .00040779  00000-0  23034-2 0  9991
2 46359  53.0545 259.6735 0003697 265.7641  94.2929 15.12741551258972
Epoch: 2025-05-08T14:15Z
Definitive object data (Epoch: 2025-05-08T14:15:55.3Z)
Latitude
0.00004°
Longitude
179.03047°
Altitude
528.917 km
Speed
7.6 km/s
True Right ascension
17h 18m 41s
True Declination
0° 00' 00"
Sunlit
Object was in full shadow at TLE epoch
Visualization TLE readout
Latitude
51.48621°
Longitude
-74.07221°
Altitude
536.303 km
Speed
7.599 km/s
Apparent Right ascension
01h 39m 12s
Apparent Declination
8° 30' 02"
Sunlit
Object is in daylight
Visualization observer readout
Local Sidereal Time
14:43:10
Azimuth
20.638° NNE
Elevation
-39.372°
Doppler factor
1
Orbital elements
Apogee altitude
530.668 km
Perigee altitude
525.562 km
Semi-major axis
6,906.252 km
Eccentricity
0.0003697
Inclination
53.0545°
RAAN
259.6735°
Arg. of periapsis
265.7641°
True anomaly
94.33514°
Mean anomaly
94.2929°
Eccentric anomaly
94.31402°
Mean motion
3.78163 °/min
BSTAR
0.0023034
Orbital period
95.2 mins
Loading maneuver chart data...
Loading SW <> Apogee altitude chart data...
Loading historical data...
Loading historical data...
Loading historical data...
Loading historical data...
Loading historical data...
Loading historical data...
Loading historical data...

STARLINK-1707 Visibility forecast

Observer location: undefined°, undefined°

Span
Click to sort rows by Start time (UTC) header in descending order
Start Az.
Max El. time (UTC)
Max El. Az.
Max El.
End time (UTC)
End Az.
7 mins2025-05-09 11:02:18.827Z213.287° SW2025-05-09 11:06:18.827Z108.346° ESE38.692°2025-05-09 11:09:18.827Z59.175° ENE
5 mins2025-05-09 12:43:18.827Z292.141° WNW2025-05-09 12:45:18.827Z336.448° NNW23.726°2025-05-09 12:48:18.827Z29.538° NE
4 mins2025-05-09 16:04:18.827Z349.51° N2025-05-09 16:06:18.827Z24.899° NE15.671°2025-05-09 16:08:18.827Z55.598° ENE
6 mins2025-05-09 17:43:18.827Z324.671° NNW2025-05-09 17:45:18.827Z13.643° NNE38.739°2025-05-09 17:49:18.827Z114.171° SE
4 mins2025-05-09 19:23:18.827Z254.129° W2025-05-09 19:24:18.827Z234.183° WSW18.599°2025-05-09 19:27:18.827Z184.93° SSW
|